Regional Weather Roundup
Issued by NWS

Home | Current Version | Previous Version | Graphics & Text | Print | Product List | Glossary On
Versions: 1 2 3 4 5 6 7 8 9 10 11 12 13 14 15 16 17 18 19 20 21 22 23 24 25 26 27 28 29 30 31 32 33 34 35 36 37 38 39 40 41 42 43 44 45 46 47 48 49 50
000
ASUS45 KPSR 031400
RWRAZ

PRELIMINARY ARIZONA REGIONAL HOURLY WEATHER ROUNDUP
NATIONAL WEATHER SERVICE PHOENIX AZ
700 AM MST TUE MAR 03 2015

NOTE: FAIR INDICATES FEW OR NO CLOUDS BELOW 12,000 FEET WITH NO
SIGNIFICANT WEATHER AND/OR OBSTRUCTIONS TO VISIBILITY.

AZZ001>003-036-031500-
NORTHWEST ARIZONA

CITY           SKY/WX    TMP DP  RH WIND       PRES   REMARKS
KINGMAN        CLEAR     31  28  89 CALM      29.92S
$$

AZZ004>008-015-016-018-031500-
NORTH CENTRAL ARIZONA

CITY           SKY/WX    TMP DP  RH WIND       PRES   REMARKS
GRAND CANYON   FOG       23  23 100 CALM      29.90S VSB 1/2
PRESCOTT       LGT RAIN  35  32  88 NW3       29.91S
FLAGSTAFF      NOT AVBL
PAYSON         CLOUDY    36  34  93 CALM      29.93R
$$

AZZ009>014-017-031500-
NORTHEAST ARIZONA

CITY           SKY/WX    TMP DP  RH WIND       PRES   REMARKS
WINSLOW        NOT AVBL
SAINT JOHNS    PTCLDY   N/A N/A N/A CALM      29.92S
WINDOW ROCK    MOCLDY    30  26  85 SW3       29.90S
$$

AZZ023-031500-
GREATER PHOENIX AREA

CITY           SKY/WX    TMP DP  RH WIND       PRES   REMARKS
PHOENIX        PTCLDY    49  47  93 SW7       29.91S
GLENDALE       MOCLDY    46  46 100 VRB3      29.93F
LUKE AFB       PTCLDY    45  44  96 N5        29.91S
DEER VALLEY    CLEAR     46  43  89 CALM      29.91S
SCOTTSDALE     CLEAR     47  45  93 CALM      29.94R
MESA-GATEWAY   PTCLDY    43  43 100 E3        29.94R
CHANDLER       MOCLDY    45  45 100 VRB6      29.93R
$$

AZZ027-028-031500-
SOUTHWEST MARICOPA COUNTY AND PINAL COUNTY

CITY           SKY/WX    TMP DP  RH WIND       PRES   REMARKS
CASA GRANDE    CLOUDY    39  37  93 CALM      29.93S VSB<1/4
GILA BEND      MOCLDY    47  48 100 NE5       29.92S
$$

AZZ503-504-507>509-031500-
SOUTHEAST ARIZONA

CITY           SKY/WX    TMP DP  RH WIND       PRES   REMARKS
TUCSON         PTCLDY    46  44  93 SW3       29.94R
RYAN FIELD       N/A     45  45 100 CALM      29.94R
NOGALES        PTCLDY    43  40  89 CALM      29.92S
SIERRA VISTA   LGT RAIN  43  43 100 CALM      29.92F
SAFFORD        PTCLDY    41  39  93 CALM      29.92R
$$

AZZ020-021-025-026-031-031500-
SOUTHWEST ARIZONA

CITY           SKY/WX    TMP DP  RH WIND       PRES   REMARKS
YUMA           PTCLDY    50  46  86 NE5       29.92S
$$

CAZ031-033-041-043-047-048-061-031500-
SOUTHERN CALIFORNIA

CITY           SKY/WX    TMP DP  RH WIND       PRES   REMARKS
DOWNTOWN L.A.  CLEAR     48  43  82 CALM      29.94R
L.A. AIRPORT   PTCLDY    49  43  80 N5        29.94R
SAN DIEGO      MOCLDY    52  41  66 CALM      29.94R
BURBANK        CLEAR     44  37  76 SW5       29.92S
ONTARIO        PTCLDY    44  37  76 CALM      29.93R
RIVERSIDE      CLEAR     42  39  89 CALM      29.94R
PALM SPRINGS   CLEAR     48  38  68 W3        29.93S
EL CENTRO NAS  PTCLDY    44  39  82 CALM      29.92R
IMPERIAL       CLEAR     45  41  86 SE5       29.92R
BLYTHE         CLEAR     44  43  96 N3        29.92S
$$

NVZ020-UTZ003-031500-
SOUTHERN NEVADA-UTAH

CITY           SKY/WX    TMP DP  RH WIND       PRES   REMARKS
LAS VEGAS      NOT AVBL
SALT LAKE CITY CLOUDY    36  31  82 S3        29.77F
$$

NMZ009-TXZ055-031500-
NEW MEXICO-WEST TEXAS

CITY           SKY/WX    TMP DP  RH WIND       PRES   REMARKS
ALBUQUERQUE    CLOUDY    41  30  65 NW7       29.93S
EL PASO        CLOUDY    52  47  83 NE6       29.88R
$$


........................KEY........................
SKY/WX - SKY CONDITION/WEATHER
TMP    - TEMPERATURE IN FAHRENHEIT
DP     - DEW POINT IN FAHRENHEIT
RH     - RELATIVE HUMIDITY IN PERCENT
WIND   - DIRECTION AND SPEED IN MILES PER HOUR (MPH)
VRB    - VARIABLE WIND DIRECTION
PRES   - MEAN SEA LEVEL PRESSURE IN INCHES OF MERCURY
         F - FALLING PRESSURE   R - RISING PRESSURE
         S - STEADY PRESSURE
VSB    - VISIBILITY IN MILES
HX     - HEAT INDEX IN FAHRENHEIT
WCI    - WIND CHILL INDEX IN FAHRENHEIT
TC     - TEMPERATURE IN CELSIUS WHICH IS ALSO KNOWN AS
         TEMPERATURE IN CENTIGRADE
AFB    - AIR FORCE BASE
         LUKE AFB IS LUKE AIR FORCE BASE
         DAVIS-MONTHAN IS DAVIS-MONTHAN AIR FORCE BASE
NAS    - NAVAL AIR STATION
         EL CENTRO NAS IS EL CENTRO NAVAL AIR STATION
N/A    - NOT AVAILABLE


USA.gov is the U.S. government's official web portal to all federal, state and local government web resources and services.